User: anonymous   Login
Location: *
(43.9900°N, 3.4811°E)
Time: 04:32:38
(UTC+00:00)
Language:

CZ-2C R/B - Orbit

View from above orbital plane
View from above orbital plane
View from above satellite
View from above satellite

Ground track
Ground track

The orbit data is extracted from the following two-line orbital elements,

1 31114U 07010B   19296.16606746 -.00000028  00000-0  60580-5 0  9996
2 31114  98.2896 159.6253 0058641 240.9832 118.5462 14.19300113649219
Epoch (UTC): 23 October 2019 03:59:08
Eccentricity: 0.0058641
inclination: 98.2896°
perigee height: 785 km
apogee height: 870 km
right ascension of ascending node: 159.6253°
argument of perigee: 240.9832°
revolutions per day: 14.19300113
mean anomaly at epoch: 118.5462°
orbit number at epoch: 64921

The dashed part of the orbit path shows where the satellite is in the earth's shadow,  

DLR